Home > Weather > Starnberg > Past weeks

Flag for Germany Weather for the Past 2 Weeks in Starnberg, Bavaria, Germany

Now
66 °F

Sunny.


Feels Like: 66 °F
Forecast: 44 / 68 °F
Wind: 9 mph from East

Location: Oberpfaffenhofen

Current Time: May 6, 2016 at 8:57:27 PM

Latest Report: May 6, 2016 at 7:50 PM


Visibility: 10 mi

Pressure: 29.92 "Hg (27.92 "Hg at 590m altitude)

Humidity: 40%

Dew Point: 41 °F

Location of StarnbergLocation

Historic Weather in Starnberg — Graph

°F

Starnberg Temperature Yesterday

Maximum temperature yesterday: 59 °F (at 3:20 PM)
Minimum temperature yesterday: 57 °F (at 2:50 PM)
Average temperature yesterday: 58 °F

High & Low Weather Summary for the Past Weeks

 TemperatureHumidityPressure
High70 °F (May 6, 4:20 PM)100% (Apr 22, 6:50 AM)30.33 "Hg (Apr 22, 6:50 AM)
Low28 °F (Apr 29, 6:50 AM)27% (Apr 29, 5:50 PM)29.59 "Hg (Apr 26, 8:50 AM)
Average49 °F65%29.97 "Hg
* Reported Apr 21 7:20 PM — May 6 7:20 PM, Starnberg, Weather by CustomWeather, © 2016

Note: Actual official high and low records may vary slightly from our data, if they occured in-between our weather recording intervals... More about our weather records

Advertising

Starnberg Weather History for the Previous 24 Hours

Scroll right to see more
 ConditionsComfort  
Time TempWeatherWind HumidityBarometerVisibility
7:20 PM
Fri, May 6
66 °FSunny.9 mph40%29.92 "Hg10 mi
6:50 PM68 °FSunny.12 mph35%29.92 "Hg10 mi
6:20 PM70 °FSunny.9 mph33%29.92 "Hg10 mi
5:50 PM70 °FSunny.10 mph31%29.92 "Hg10 mi
5:20 PM70 °FSunny.8 mph35%29.95 "Hg10 mi
4:50 PM70 °FSunny.9 mph31%29.95 "Hg10 mi
4:20 PM70 °FSunny.13 mph33%29.95 "Hg10 mi
3:50 PM68 °FSunny.9 mph33%29.95 "Hg10 mi
3:20 PM68 °FSunny.12 mph33%29.98 "Hg10 mi
2:50 PM68 °FSunny.5 mph35%29.98 "Hg10 mi
2:20 PM68 °FSunny.7 mph38%30.01 "Hg10 mi
1:50 PM66 °FSunny.6 mph46%30.01 "Hg10 mi
1:20 PM66 °FSunny.7 mph49%30.01 "Hg10 mi
12:50 PM64 °FSunny.7 mph49%30.04 "Hg10 mi
12:20 PM64 °FSunny.6 mph52%30.04 "Hg10 mi
11:50 AM63 °FSunny.5 mph52%30.04 "Hg10 mi
11:20 AM61 °FSunny.3 mph55%30.04 "Hg10 mi
10:50 AM59 °FSunny.3 mph55%30.04 "Hg10 mi
10:20 AM57 °FSunny.1 mph67%30.07 "Hg10 mi
9:50 AM55 °FSunny.2 mph67%30.07 "Hg10 mi
9:20 AM52 °FSunny.No wind88%30.07 "Hg10 mi
8:50 AM50 °FSunny.No wind100%30.07 "Hg10 mi
8:20 AM46 °FSunny.1 mph100%30.07 "Hg10 mi
7:50 AM43 °FFog.No wind100%30.07 "Hg3 mi
7:20 AM39 °FFog.1 mph100%30.07 "Hg0 mi
6:50 AM36 °FFog.3 mph100%30.04 "Hg0 mi
Weather by CustomWeather, © 2016

See weather overviewHow to use our weather pages